#timestamp,LO_Frequency,Hit,StdDev 
1548547215.8,286046996.5,N
1548547235.7,286046999.2,N
1548547255.5,286046999.5,N
1548547275.3,286046998.1,N
1548547295.2,286047000.8,N
1548547315.0,286046998.3,N
1548547315.9,286046998.3,N
1548547335.7,286047001.2,N
1548547355.6,286047001.1,N
1548547375.4,286047002.4,N
1548547395.3,286047002.2,N
1548547415.1,286047002.3,N
1548547416.0,286047002.3,N
1548547435.8,286047001.5,N
1548547455.7,286047002.7,N
1548547475.5,286047000.3,N
1548547495.3,286047000.3,N
1548547515.2,286047002.4,N
1548547535.0,286046999.7,N
1548547535.9,286046999.7,N
1548547555.8,286047002.6,N
1548547575.6,286047000.1,N
1548547595.4,286046999.8,N
1548547615.3,286047002.2,N
1548547635.1,286047004.0,N
1548547655.8,286047002.3,N
1548547675.7,286047005.8,Y
1548547695.5,286047000.1,P
1548547715.4,286047003.8,P
1548547735.2,286047004.3,N
1548547755.0,286047005.5,N
1548547755.9,286047005.5,N
1548547775.8,286047003.9,N
1548547795.6,286047004.1,N
1548547815.4,286047001.6,N
1548547835.3,286047000.1,N
1548547855.1,286047002.4,N
1548547875.9,286047002.6,N
1548547895.7,286047000.4,N
1548547915.5,286047000.3,N
1548547935.4,286047000.1,N
1548547955.2,286047000.6,N
1548547975.0,286047001.1,N
1548547975.9,286047001.1,N
1548547995.8,286047003.1,N
1548548015.6,286047004.7,N
1548548035.5,286047007.1,Y
1548548055.3,286047003.3,P
1548548075.1,286047002.0,P
1548548095.9,286047002.0,P
1548548115.7,286047000.6,N
1548548135.5,286047001.1,N
1548548155.4,286046998.5,N
1548548175.2,286046998.4,N
1548548195.1,286047000.9,N
1548548196.0,286047000.9,N
1548548215.8,286047000.4,N
1548548235.6,286046998.8,N
1548548255.5,286046998.9,N
1548548275.3,286046998.5,N
1548548295.1,286046998.7,N
1548548315.9,286046999.1,N
1548548335.7,286047000.6,N
1548548355.6,286047001.1,N
1548548375.4,286047000.8,N
1548548395.2,286047001.5,N
1548548415.1,286047001.5,N
1548548416.0,286047001.5,N
1548548435.8,286047004.0,N
1548548455.7,286047001.3,N
1548548475.5,286047004.2,N
1548548495.3,286047001.6,N
1548548515.2,286046999.8,N
1548548535.0,286047001.3,N
1548548535.9,286047001.3,N
1548548555.8,286047001.6,N
1548548575.6,286047001.9,N
1548548595.4,286046999.9,N
1548548615.3,286046998.3,N
1548548635.1,286047001.2,N
1548548655.8,286047000.3,N
1548548675.7,286046998.8,N
1548548695.5,286046997.0,N
1548548715.4,286046997.3,N
1548548735.2,286046996.2,N
1548548755.0,286046995.8,N
1548548755.9,286046995.8,N
1548548775.8,286046993.3,Y
1548548795.6,286046993.4,P
1548548815.4,286046996.2,N
1548548835.3,286046995.2,N
1548548855.1,286046993.7,N
1548548875.9,286046995.0,N
1548548895.7,286046997.1,N
1548548915.5,286046997.0,N
1548548935.4,286046996.7,N
1548548955.2,286046996.8,N
1548548975.0,286046997.4,N
1548548975.9,286046997.4,N
1548548995.8,286046996.7,N
1548549015.6,286046995.4,N
1548549035.5,286046996.1,N
1548549055.3,286046993.8,Y
1548549075.1,286046996.6,P
1548549095.9,286046998.4,P
1548549115.7,286046999.6,N
1548549135.5,286046999.4,N
1548549155.4,286046998.8,N
1548549175.2,286046998.3,N
1548549195.1,286047000.4,N
1548549196.0,286047000.4,N
1548549215.8,286047001.2,N
1548549235.6,286046998.6,N
1548549255.5,286047002.4,N
1548549275.3,286047002.2,N
1548549295.1,286047001.3,N
1548549315.9,286047003.7,N
1548549335.7,286047002.0,N
1548549355.6,286047000.1,N
1548549375.4,286046998.1,N
1548549395.2,286046999.8,N
1548549415.1,286047002.2,N
1548549416.0,286047002.2,N
1548549435.8,286047002.8,N
1548549455.6,286047000.5,N
1548549475.5,286047002.7,N
1548549495.3,286047000.2,N
1548549515.2,286046998.7,N
1548549535.9,286046998.6,N
1548549555.7,286046998.8,N
1548549575.6,286046999.1,N
1548549595.4,286046999.3,N
1548549615.2,286046998.7,N
1548549635.1,286046999.0,N
1548549636.0,286046999.0,N
1548549655.8,286046999.0,N
1548549675.7,286046999.0,N
1548549695.5,286046999.2,N
1548549715.3,286046996.5,N
1548549735.2,286046998.1,N
1548549755.0,286046998.7,N
1548549755.9,286046998.7,N
1548549775.7,286046998.4,N
1548549795.6,286046999.2,N
1548549815.4,286046996.9,N
1548549835.3,286046996.7,N
1548549855.1,286046999.0,N
1548549856.0,286046999.0,N
1548549875.8,286046998.4,N
1548549895.7,286046999.0,N
1548549915.5,286046999.6,N
1548549935.3,286047001.5,N
1548549955.2,286047002.8,N
1548549975.0,286047002.8,N
1548549975.9,286047002.8,N
1548549995.8,286047002.7,N
1548550015.6,286047005.8,Y
1548550035.4,286047005.2,P
1548550055.3,286047005.0,N
1548550075.1,286047003.2,N
1548550095.8,286047003.6,N
1548550115.7,286047003.2,N
1548550135.5,286047001.4,N
1548550155.4,286047001.7,N
1548550175.2,286047000.4,N
1548550195.0,286046999.1,N
1548550195.9,286046999.1,N
1548550215.8,286046996.6,N
1548550235.6,286046998.9,N
1548550255.4,286047000.5,N
1548550275.3,286046998.1,N
1548550295.1,286047001.1,N
1548550315.9,286047000.7,N
1548550335.7,286046998.1,N
1548550355.5,286047000.6,N
1548550375.4,286047001.2,N
1548550395.2,286047004.0,N
1548550415.0,286047002.3,N
1548550415.9,286047002.3,N
1548550435.8,286047002.0,N
1548550455.6,286047002.4,N
1548550475.5,286047000.0,N
1548550495.3,286047000.4,N
1548550515.1,286047000.0,N
1548550535.9,286047002.8,N
1548550555.7,286047001.0,N
1548550575.5,286047000.6,N
1548550595.4,286047000.6,N
1548550615.2,286047000.6,N
1548550635.0,286046998.3,N
1548550636.0,286046998.3,N
1548550655.8,286046998.1,N
1548550675.6,286047000.1,N
1548550695.5,286046998.4,N
1548550715.3,286046998.8,N
1548550735.1,286046996.5,N
1548550755.9,286046997.4,N
1548550775.7,286046998.9,N
1548550795.5,286046998.4,N
